User: anonymous   Login
Location: Bakov nad Jizerou
(50.4784°N, 14.9394°E)
Time: 05:38:54
(UTC+00:00)
Language:

NOSS 3-1 (C) - Orbit

View from above orbital plane
View from above orbital plane
View from above satellite
View from above satellite

Ground track
Ground track

The orbit data is extracted from the following two-line orbital elements,

1 26907U 01040C   21297.82718455 0.00000000  00000-0  00000-0 0    03
2 26907  63.3883 277.3876 0513011   3.4037 356.5963 13.41336923    07
Epoch (UTC): 24 October 2021 19:51:08
Eccentricity: 0.0513011
inclination: 63.3883°
perigee height: 720 km
apogee height: 1488 km
right ascension of ascending node: 277.3876°
argument of perigee: 3.4037°
revolutions per day: 13.41336923
mean anomaly at epoch: 356.5963°
orbit number at epoch: 0

The dashed part of the orbit path shows where the satellite is in the earth's shadow,  

DLR